Powrót do katalogu

BREEZE-M DEB

LostHEO
NORAD 32489·DEBRIS·🇷🇺 Russia

Wystrzelony Feb 28, 2006 z Baikonur Cosmodrome

Loading…

Następne Przeloty (najbliższe 24 godziny)

TLE

NieaktualneSource: Space-Track

Epoka: Nov 28, 2008, 15:22 UTC

1 32489U 06006AC  08333.64079042  .00005490  00000-0  16876+0 0  9992
2 32489  50.1223 116.8569 4569164 224.2940  87.6668  5.41280188 19744

Śledź BREEZE-M DEB w czasie rzeczywistym z AllMySat

Download on the App Store